Home > Time Zones > World Clock > Weather > Italy > Milan > Past weeks

Flag for Italy Weather past 2 weeks in Milan, Italy

Now
75 °F

Passing clouds.


Feels Like: 77 °F
Forecast: 62 / 79 °F
Wind: 3 mph from North

Location: Milan / Linate

Current Time: Jul 11, 2014 at 12:44:55 PM

Latest Report: Jul 11, 2014 at 11:50 AM


Visibility: N/A

Pressure: 29.77 "Hg

Humidity: 61%

Dew point: 61 °F

Location of MilanLocation

Historic Weather in Milan — Graph

°F

Milan temperature yesterday

Maximum temperature yesterday: 77 °F (at 3:20 PM)
Minimum temperature yesterday: 59 °F (at 3:50 AM)
Average temperature yesterday: 68 °F

Past Weeks' High & Low Weather Summary

 TemperatureHumidityPressure
High84 °F (Jun 30, 4:20 PM)100% (Jun 26, 10:50 PM)30.27 "Hg (Jun 26, 10:50 PM)
Low55 °F (Jun 30, 6:20 AM)19% (Jun 30, 1:50 PM)29.65 "Hg (Jul 9, 2:50 PM)
Average70 °F73%29.93 "Hg
* Reported Jun 26 11:20 AM — Jul 11 11:50 AM, Milan, Weather by CustomWeather, © 2014

Note: Actual official high and low records may vary slightly from our data, if they occured in-between our weather recording intervals... More about our weather records

Advertising

Milan weather history for previous 24 hours

 ConditionsComfort  
Time TempWeatherWind HumidityBarometerVisibility
11:50 AM
Jul 11
75 °FPassing clouds.3 mph61%29.77 "HgN/A
11:20 AM73 °FPassing clouds.3 mph61%29.77 "HgN/A
10:50 AM72 °FPassing clouds.6 mph65%29.77 "HgN/A
10:20 AM72 °FSunny.3 mph65%29.77 "Hg10 mi
9:50 AM73 °FSunny.2 mph57%29.77 "Hg10 mi
9:20 AM72 °FSunny.2 mph61%29.77 "Hg10 mi
8:50 AM70 °FPassing clouds.2 mph64%29.77 "HgN/A
8:20 AM68 °FPassing clouds.1 mph73%29.77 "HgN/A
7:50 AM66 °FPassing clouds.3 mph78%29.77 "HgN/A
7:20 AM66 °FPassing clouds.2 mph73%29.77 "HgN/A
6:50 AM64 °FScattered clouds.No wind78%29.77 "HgN/A
6:20 AM59 °FPassing clouds.2 mph88%29.77 "HgN/A
5:50 AM61 °FClear.1 mph88%29.77 "Hg10 mi
5:20 AM61 °FClear.1 mph88%29.77 "Hg10 mi
4:50 AM63 °FClear.3 mph77%29.77 "Hg10 mi
4:20 AM63 °FClear.5 mph83%29.77 "Hg10 mi
3:50 AM63 °FClear.3 mph83%29.77 "Hg10 mi
3:20 AM63 °FClear.5 mph83%29.77 "Hg10 mi
2:50 AM63 °FPassing clouds.5 mph83%29.77 "HgN/A
2:20 AM64 °FPassing clouds.6 mph78%29.77 "HgN/A
1:50 AM64 °FPassing clouds.6 mph78%29.77 "HgN/A
1:20 AM64 °FPassing clouds.6 mph78%29.77 "HgN/A
12:50 AM64 °FPassing clouds.6 mph78%29.77 "HgN/A
12:20 AM64 °FPassing clouds.6 mph83%29.77 "HgN/A
11:50 PM
Jul 10
64 °FPassing clouds.5 mph83%29.77 "HgN/A
11:20 PM66 °FPassing clouds.3 mph78%29.77 "HgN/A
10:50 PM66 °FPassing clouds.6 mph78%29.77 "HgN/A
10:20 PM68 °FPassing clouds.9 mph73%29.74 "HgN/A
9:50 PM68 °FScattered clouds.3 mph64%29.74 "HgN/A
9:20 PM70 °FScattered clouds.3 mph57%29.71 "HgN/A
8:50 PM73 °FPassing clouds.3 mph44%29.71 "HgN/A
8:20 PM75 °FPassing clouds.6 mph41%29.71 "HgN/A
7:50 PM75 °FPassing clouds.7 mph44%29.71 "HgN/A
7:20 PM75 °FPassing clouds.7 mph47%29.71 "HgN/A
6:50 PM77 °FPassing clouds.8 mph42%29.68 "HgN/A
6:20 PM77 °FPassing clouds.8 mph36%29.68 "HgN/A
5:50 PM77 °FPassing clouds.8 mph42%29.68 "HgN/A
5:20 PM77 °FPassing clouds.10 mph42%29.68 "HgN/A
4:50 PM77 °FPassing clouds.7 mph51%29.68 "HgN/A
4:20 PM77 °FScattered clouds.9 mph47%29.68 "HgN/A
3:50 PM77 °FPassing clouds.6 mph47%29.68 "HgN/A
3:20 PM77 °FPassing clouds.5 mph51%29.68 "HgN/A
2:50 PM75 °FPassing clouds.7 mph57%29.68 "HgN/A
2:20 PM75 °FScattered clouds.6 mph54%29.68 "HgN/A
1:50 PM73 °FScattered clouds.6 mph53%29.68 "HgN/A
1:20 PM73 °FScattered clouds.3 mph57%29.71 "HgN/A
12:50 PM73 °FScattered clouds.2 mph57%29.71 "HgN/A
12:20 PM73 °FScattered clouds.3 mph53%29.71 "HgN/A
Weather by CustomWeather, © 2014

See weather overviewHow to use our weather pages